When you browse on this site, cookies collect data to enhance your experience and personalize the content and advertising you see.
Visit our Privacy Policy to learn more. By continuing to use the site, you agree to this use of cookies and data.
  • In France
  • List of Countries
  • For 7 days
  • Water Temperature
  • Weather Map
  • Weather Widgets
  • user-avatar
    Login

    Hourly Weather Zdonkow

    Today, 20 October, Sunday

    Time Temperature Precipitation Wind Pressure Humidity
    00:00 +14°C° 0 mm 2 mps 743 mmHg 89%
    01:00 +14°C° 0 mm 2 mps 743 mmHg 87%
    02:00 +14°C° 0 mm 2 mps 743 mmHg 87%
    03:00 +13°C° 0 mm 2 mps 743 mmHg 86%
    04:00 +13°C° 0 mm 2 mps 743 mmHg 86%
    05:00 +13°C° 0 mm 2 mps 743 mmHg 84%
    06:00 +13°C° 0 mm 2 mps 743 mmHg 83%
    07:00 +13°C° 0 mm 2 mps 744 mmHg 81%
    08:00 +16°C° 0 mm 2 mps 744 mmHg 73%
    09:00 +18°C° 0 mm 2 mps 744 mmHg 65%
    10:00 +20°C° 0 mm 2 mps 744 mmHg 56%
    11:00 +21°C° 0 mm 2 mps 744 mmHg 53%
    12:00 +23°C° 0 mm 2 mps 744 mmHg 50%
    13:00 +24°C° 0 mm 2 mps 744 mmHg 47%
    14:00 +23°C° 0 mm 2 mps 744 mmHg 52%
    15:00 +21°C° 0 mm 2 mps 744 mmHg 56%
    16:00 +20°C° 0 mm 2 mps 744 mmHg 61%
    17:00 +20°C° 0 mm 1 mps 744 mmHg 64%
    18:00 +19°C° 0 mm 1 mps 744 mmHg 67%
    19:00 +18°C° 0 mm 1 mps 744 mmHg 69%
    20:00 +16°C° 0 mm 1 mps 744 mmHg 71%
    21:00 +16°C° 0 mm 1 mps 745 mmHg 72%
    22:00 +14°C° 0 mm 0 mps 745 mmHg 74%
    23:00 +15°C° 0 mm 1 mps 745 mmHg 74%

    Tomorrow, 21 October, Monday

    Time Temperature Precipitation Wind Pressure Humidity
    00:00 +15°C° 0 mm 1 mps 745 mmHg 75%
    01:00 +15°C° 0 mm 1 mps 745 mmHg 75%
    02:00 +15°C° 0 mm 1 mps 745 mmHg 77%
    03:00 +14°C° 0 mm 1 mps 744 mmHg 78%
    04:00 +14°C° 0 mm 1 mps 744 mmHg 79%
    05:00 +14°C° 0 mm 1 mps 745 mmHg 79%
    06:00 +14°C° 0 mm 1 mps 745 mmHg 78%
    07:00 +14°C° 0 mm 1 mps 745 mmHg 78%
    08:00 +16°C° 0 mm 1 mps 745 mmHg 72%
    09:00 +19°C° 0 mm 1 mps 745 mmHg 65%
    10:00 +20°C° 0 mm 1 mps 746 mmHg 59%
    11:00 +21°C° 0 mm 1 mps 746 mmHg 57%
    12:00 +22°C° 0 mm 1 mps 746 mmHg 54%
    13:00 +23°C° 0 mm 1 mps 747 mmHg 51%
    14:00 +22°C° 0 mm 1 mps 747 mmHg 56%
    15:00 +21°C° 0 mm 1 mps 747 mmHg 60%
    16:00 +20°C° 0 mm 1 mps 747 mmHg 64%
    17:00 +19°C° 0 mm 1 mps 747 mmHg 67%
    18:00 +16°C° 0 mm 0 mps 747 mmHg 71%
    19:00 +15°C° 0 mm 0 mps 748 mmHg 74%
    20:00 +15°C° 0 mm 0 mps 748 mmHg 76%
    21:00 +14°C° 0 mm 0 mps 748 mmHg 77%
    22:00 +14°C° 0 mm 0 mps 748 mmHg 79%
    23:00 +14°C° 0 mm 0 mps 748 mmHg 80%

    Day after tomorrow, 22 October, Tuesday

    Time Temperature Precipitation Wind Pressure Humidity
    00:00 +13°C° 0 mm 0 mps 748 mmHg 81%
    01:00 +13°C° 0 mm 0 mps 749 mmHg 82%
    02:00 +13°C° 0 mm 0 mps 749 mmHg 83%
    03:00 +13°C° 0 mm 0 mps 749 mmHg 83%
    04:00 +14°C° 0 mm 1 mps 749 mmHg 84%
    05:00 +14°C° 0 mm 1 mps 749 mmHg 84%
    06:00 +14°C° 0 mm 1 mps 749 mmHg 84%
    07:00 +14°C° 0 mm 1 mps 749 mmHg 84%
    08:00 +15°C° 0 mm 1 mps 749 mmHg 78%
    09:00 +18°C° 0 mm 1 mps 749 mmHg 72%
    10:00 +20°C° 0 mm 1 mps 750 mmHg 66%
    11:00 +19°C° 0 mm 2 mps 749 mmHg 64%
    12:00 +20°C° 0 mm 2 mps 749 mmHg 62%
    13:00 +21°C° 0 mm 2 mps 749 mmHg 60%
    14:00 +20°C° 0 mm 2 mps 749 mmHg 64%
    15:00 +19°C° 0 mm 2 mps 748 mmHg 68%
    16:00 +18°C° 0 mm 2 mps 748 mmHg 73%
    17:00 +17°C° 0 mm 2 mps 748 mmHg 77%
    18:00 +16°C° 0 mm 2 mps 749 mmHg 81%
    19:00 +15°C° 0 mm 2 mps 749 mmHg 86%
    20:00 +15°C° 0 mm 2 mps 749 mmHg 88%
    21:00 +14°C° 0 mm 2 mps 749 mmHg 90%
    22:00 +14°C° 0 mm 2 mps 749 mmHg 92%
    23:00 +14°C° 0 mm 2 mps 749 mmHg 91%

    23 October, Wednesday

    Time Temperature Precipitation Wind Pressure Humidity
    00:00 +13°C° 0 mm 2 mps 749 mmHg 91%
    01:00 +13°C° 0 mm 2 mps 749 mmHg 91%
    02:00 +12°C° 0 mm 2 mps 749 mmHg 91%
    03:00 +12°C° 0 mm 2 mps 749 mmHg 91%
    04:00 +10°C° 0 mm 2 mps 749 mmHg 91%
    05:00 +11°C° 0 mm 1 mps 749 mmHg 91%
    06:00 +11°C° 0 mm 1 mps 749 mmHg 91%
    07:00 +11°C° 0 mm 1 mps 749 mmHg 91%
    08:00 +12°C° 0 mm 1 mps 749 mmHg 84%
    09:00 +12°C° 0 mm 0 mps 749 mmHg 77%
    10:00 +14°C° 0 mm 0 mps 749 mmHg 71%
    11:00 +14°C° 0 mm 0 mps 749 mmHg 67%
    12:00 +16°C° 0 mm 1 mps 749 mmHg 64%
    13:00 +16°C° 0 mm 1 mps 749 mmHg 61%
    14:00 +16°C° 0 mm 1 mps 748 mmHg 64%
    15:00 +15°C° 0 mm 1 mps 748 mmHg 67%
    16:00 +15°C° 0 mm 1 mps 748 mmHg 70%
    17:00 +14°C° 0 mm 2 mps 748 mmHg 73%
    18:00 +13°C° 0 mm 2 mps 747 mmHg 76%
    19:00 +12°C° 0 mm 2 mps 747 mmHg 79%
    20:00 +12°C° 0 mm 2 mps 747 mmHg 80%
    21:00 +12°C° 0 mm 2 mps 747 mmHg 82%
    22:00 +10°C° 0 mm 2 mps 747 mmHg 84%
    23:00 +10°C° 0 mm 2 mps 747 mmHg 85%

    24 October, Thursday

    Time Temperature Precipitation Wind Pressure Humidity
    00:00 +10°C° 0 mm 3 mps 747 mmHg 86%
    01:00 +10°C° 0 mm 3 mps 746 mmHg 88%
    02:00 +10°C° 0 mm 3 mps 746 mmHg 90%
    03:00 +9°C° 0 mm 3 mps 746 mmHg 91%
    04:00 +9°C° 0 mm 3 mps 745 mmHg 93%
    05:00 +9°C° 0 mm 3 mps 745 mmHg 93%
    06:00 +10°C° 0 mm 3 mps 745 mmHg 94%
    07:00 +10°C° 0 mm 4 mps 744 mmHg 95%
    08:00 +12°C° 0 mm 4 mps 744 mmHg 88%
    09:00 +13°C° 0 mm 4 mps 744 mmHg 81%
    10:00 +15°C° 0 mm 4 mps 744 mmHg 73%
    11:00 +18°C° 0 mm 4 mps 744 mmHg 69%
    12:00 +19°C° 0 mm 4 mps 743 mmHg 64%
    13:00 +20°C° 0 mm 4 mps 743 mmHg 59%
    14:00 +19°C° 0 mm 4 mps 743 mmHg 62%
    15:00 +19°C° 0 mm 3 mps 742 mmHg 65%
    16:00 +18°C° 0 mm 3 mps 742 mmHg 68%
    17:00 +17°C° 0 mm 3 mps 742 mmHg 71%
    18:00 +16°C° 0 mm 2 mps 742 mmHg 75%
    19:00 +15°C° 0 mm 2 mps 742 mmHg 78%
    20:00 +14°C° 0 mm 2 mps 742 mmHg 79%
    21:00 +14°C° 0 mm 2 mps 742 mmHg 79%
    22:00 +14°C° 0 mm 2 mps 742 mmHg 80%
    23:00 +14°C° 0 mm 1 mps 742 mmHg 79%

    25 October, Friday

    Time Temperature Precipitation Wind Pressure Humidity
    00:00 +13°C° 0 mm 1 mps 742 mmHg 78%
    01:00 +13°C° 0 mm 1 mps 743 mmHg 77%
    02:00 +13°C° 0 mm 1 mps 742 mmHg 76%
    03:00 +13°C° 0 mm 1 mps 742 mmHg 75%
    04:00 +13°C° 0 mm 1 mps 742 mmHg 75%
    05:00 +13°C° 0 mm 1 mps 742 mmHg 75%
    06:00 +13°C° 0 mm 1 mps 743 mmHg 74%
    07:00 +13°C° 0 mm 1 mps 743 mmHg 74%
    08:00 +15°C° 0 mm 1 mps 743 mmHg 66%
    09:00 +18°C° 0 mm 1 mps 743 mmHg 59%
    10:00 +20°C° 0 mm 1 mps 744 mmHg 52%
    11:00 +21°C° 0 mm 1 mps 744 mmHg 49%
    12:00 +22°C° 0 mm 1 mps 744 mmHg 46%
    13:00 +23°C° 0 mm 1 mps 744 mmHg 42%
    14:00 +22°C° 0 mm 1 mps 744 mmHg 47%
    15:00 +20°C° 0 mm 1 mps 744 mmHg 52%
    16:00 +17°C° 0 mm 0 mps 744 mmHg 56%
    17:00 +16°C° 0 mm 0 mps 744 mmHg 59%
    18:00 +16°C° 0 mm 1 mps 744 mmHg 62%
    19:00 +15°C° 0 mm 1 mps 744 mmHg 65%
    20:00 +15°C° 0 mm 1 mps 745 mmHg 66%
    21:00 +13°C° 0 mm 0 mps 745 mmHg 67%
    22:00 +13°C° 0 mm 0 mps 745 mmHg 69%
    23:00 +13°C° 0 mm 0 mps 745 mmHg 70%
    Show more